F6CNB-13 Weather Reports


Display with metric or nautical units.
time (UTC)temp
F
wind
direction
speed
MPH
gust
MPH
rain 1hr
in
rain 24hr
in
rain mn
in
humidity
%
barometer
mb
20260510004550 60 317 2.0 6.0 0.00 0.00 0.00 66 1011.4
20260510003100 61 319 0.0 4.0 0.00 0.00 0.00 66 1011.5
20260510001549 61 0 1.0 8.0 0.00 0.00 0.00 65 1011.7
20260510000055 61 332 3.0 9.0 0.00 0.00 0.00 65 1011.9
20260509234557 62 340 2.0 8.0 0.00 0.00 0.00 65 1012.0
20260509233101 62 343 2.0 7.0 0.00 0.00 0.00 64 1012.2
20260509231554 63 306 1.0 8.0 0.00 0.00 0.00 63 1012.3
20260509230053 63 355 1.0 5.0 0.00 0.00 0.00 63 1012.3
20260509224550 63 319 2.0 9.0 0.00 0.00 0.00 62 1012.4
20260509223057 64 337 1.0 6.0 0.00 0.00 0.00 62 1012.4
20260509221547 64 38 1.0 5.0 0.00 0.00 0.00 62 1012.4
20260509220056 64 46 1.0 5.0 0.00 0.00 0.00 62 1012.3
20260509214553 65 0 1.0 6.0 0.00 0.00 0.00 62 1012.5
20260509213051 65 61 2.0 6.0 0.00 0.00 0.00 63 1012.5
20260509211550 65 23 1.0 8.0 0.00 0.00 0.00 64 1012.6
20260509210053 65 13 0.0 6.0 0.00 0.00 0.00 64 1012.5
20260509204556 65 13 1.0 11.0 0.00 0.00 0.00 64 1012.4
20260509203049 66 340 1.0 5.0 0.00 0.00 0.00 63 1012.4
20260509201604 66 34 1.0 3.0 0.00 0.00 0.00 63 1012.3
20260509200108 67 21 1.0 3.0 0.00 0.00 0.00 63 1012.2
20260509194554 67 42 0.0 4.0 0.00 0.00 0.00 62 1012.2
20260509193111 68 41 0.0 4.0 0.00 0.00 0.00 61 1012.1
20260509191552 68 0 1.0 4.0 0.00 0.00 0.00 60 1011.9
20260509190051 68 23 0.0 4.0 0.00 0.00 0.00 59 1011.9
20260509184604 69 116 0.0 6.0 0.00 0.00 0.00 57 1011.8
20260509183056 69 352 1.0 4.0 0.00 0.00 0.00 56 1011.7
20260509181553 70 346 1.0 7.0 0.00 0.00 0.00 55 1011.6
20260509180050 70 0 1.0 6.0 0.00 0.00 0.00 55 1011.6
20260509174549 71 22 2.0 8.0 0.00 0.00 0.00 54 1011.8
20260509173104 71 30 1.0 8.0 0.00 0.00 0.00 54 1011.7
20260509171618 71 24 0.0 7.0 0.00 0.00 0.00 54 1011.8
20260509170053 71 71 1.0 5.0 0.00 0.00 0.00 53 1011.9
20260509164556 71 28 2.0 7.0 0.00 0.00 0.00 54 1011.9
20260509163102 72 22 1.0 8.0 0.00 0.00 0.00 53 1011.9
20260509161555 72 29 2.0 5.0 0.00 0.00 0.00 52 1012.0
20260509160051 72 136 2.0 12.0 0.00 0.00 0.00 49 1011.9
20260509154553 72 0 3.0 8.0 0.00 0.00 0.00 53 1012.0
20260509153057 71 130 1.0 5.0 0.00 0.00 0.00 53 1012.2
20260509151558 72 355 2.0 8.0 0.00 0.00 0.00 54 1012.4
20260509150105 72 121 2.0 9.0 0.00 0.00 0.00 55 1012.5
20260509144659 71 360 1.0 6.0 0.00 0.00 0.00 56 1012.5
20260509143055 71 40 2.0 9.0 0.00 0.00 0.00 53 1012.5
20260509141554 71 323 1.0 5.0 0.00 0.00 0.00 53 1012.5
20260509140052 72 55 1.0 8.0 0.00 0.00 0.00 55 1012.6
20260509134550 71 76 2.0 10.0 0.00 0.00 0.00 54 1012.3
20260509133051 72 22 2.0 8.0 0.00 0.00 0.00 54 1012.7
20260509131550 72 344 3.0 13.0 0.00 0.00 0.00 54 1012.7
20260509124604 73 352 4.0 10.0 0.00 0.00 0.00 52 1012.8
20260509123048 72 61 2.0 9.0 0.00 0.00 0.00 52 1013.1
20260509121553 72 81 2.0 9.0 0.00 0.00 0.00 54 1013.3
20260509114551 72 17 2.0 9.0 0.00 0.00 0.00 56 1013.5
20260509113052 71 330 2.0 9.0 0.00 0.00 0.00 55 1013.7
20260509111552 71 344 2.0 9.0 0.00 0.00 0.00 56 1013.9
20260509110053 71 18 0.0 10.0 0.00 0.00 0.00 55 1014.0
20260509104548 70 0 2.0 9.0 0.00 0.00 0.00 56 1014.1
20260509103051 69 0 1.0 7.0 0.00 0.00 0.00 59 1014.1
20260509101552 68 355 1.0 10.0 0.00 0.00 0.00 61 1014.2
20260509100056 68 9 2.0 8.0 0.00 0.00 0.00 62 1014.3
20260509094553 67 332 1.0 5.0 0.00 0.00 0.00 63 1014.3
20260509093051 66 67 3.0 6.0 0.00 0.00 0.00 62 1014.5
20260509091552 66 355 2.0 6.0 0.00 0.00 0.00 65 1014.5
20260509084559 64 355 1.0 7.0 0.00 0.00 0.00 66 1014.4
20260509083104 64 32 2.0 5.0 0.00 0.00 0.00 65 1014.6
20260509081552 64 78 1.0 4.0 0.00 0.00 0.00 65 1014.8
20260509080057 63 64 2.0 7.0 0.00 0.00 0.00 67 1014.7
20260509074550 62 0 1.0 5.0 0.00 0.00 0.00 67 1014.8
20260509073057 62 360 1.0 4.0 0.00 0.00 0.00 68 1014.9
20260509071557 60 19 1.0 6.0 0.00 0.00 0.00 69 1015.0
20260509070057 60 53 1.0 5.0 0.00 0.00 0.00 70 1014.9
20260509064605 59 0 0.0 5.0 0.00 0.00 0.00 72 1015.0
20260509063052 57 31 2.0 5.0 0.00 0.00 0.00 73 1015.1
20260509061558 56 26 1.0 3.0 0.00 0.00 0.00 75 1015.0
20260509060104 55 0 1.0 2.0 0.00 0.00 0.00 77 1015.0
20260509054605 55 0 0.0 3.0 0.00 0.00 0.00 77 1014.9
20260509053059 54 0 0.0 2.0 0.00 0.00 0.00 80 1014.9
20260509051556 52 303 1.0 2.0 0.00 0.00 0.00 82 1014.5
20260509050057 51 0 0.0 2.0 0.00 0.00 0.00 84 1014.5
20260509044552 50 0 0.0 2.0 0.00 0.00 0.00 85 1014.4
20260509043049 50 0 1.0 2.0 0.00 0.00 0.00 85 1014.3
20260509041548 51 0 0.0 1.0 0.00 0.00 0.00 84 1014.6
20260509040057 51 0 0.0 2.0 0.00 0.00 0.00 84 1014.6
20260509034600 51 0 0.0 2.0 0.00 0.00 0.00 84 1014.6
20260509033050 51 0 0.0 3.0 0.00 0.00 0.00 84 1014.5
20260509031559 51 0 0.0 2.0 0.00 0.00 0.00 83 1014.7
20260509030051 51 0 0.0 5.0 0.00 0.00 0.00 83 1014.8
20260509024548 51 0 0.0 1.0 0.00 0.00 0.00 83 1014.9
20260509023056 51 0 0.0 0.0 0.00 0.00 0.00 82 1014.9
20260509021553 51 0 0.0 1.0 0.00 0.00 0.00 82 1014.9
20260509020056 52 0 0.0 1.0 0.00 0.00 0.00 81 1015.0
20260509014556 52 0 0.0 1.0 0.00 0.00 0.00 80 1015.0
20260509013113 52 0 0.0 1.0 0.00 0.00 0.00 80 1015.1
20260509011553 53 347 0.0 2.0 0.00 0.00 0.00 80 1015.3
20260509010057 53 0 0.0 2.0 0.00 0.00 0.00 79 1015.2